Disclaimer

Please do not use the information listed here in-flight or in-navigation, as they are not provided to us by the airports but are provided by volunteers, so they might be outdated.

Search


Regions


Airport information page

Radio informations:
Approach (APP) - 120.3 MHz

Airport informations:
Latitude: 53° 21' 49.59" N
Longitude: 083° 32' 18.72" E
Elevation: 838 feet - 255 meters
Operating hours: 24 hour operations
Operating agency: Civil government, landing fees and diplomatic clearance may be required
Timezone: UTC+6(+7DT) - Last Sunday in March to last Sunday in October
Fuel: N/A

Runway information:
06/24 - 9350 x 164 feet< - >2850 x 50 meters

Recent METARs:
UNBB 171330Z 23001MPS 8000 NSC M13/M14 Q1033 R24/390137 NOSIG RMK QFE752
UNBB 171400Z 00000MPS 9000 FEW005 M14/M16 Q1033 R24/390137 NOSIG RMK QFE752
UNBB 171430Z 20002MPS 7000 FEW005 M13/M15 Q1033 R24/390137 NOSIG RMK QFE752

Airport on the map: